N4695Z OMAA-OBBI

Flight info

Callsign N4695Z
Flight time N/A
Altitude 26000
Route BOSEV N563 IMGUX P699 ORMID M556 ORDIG
Aircraft TBM8/L-SDFGRWY/S

Departure

Time 2026-05-01 14:29
Airport Zayed International Airport (OMAA)

Arrival

Time N/A
Airport Bahrain International Airport (OBBI)
Time Latitude Longitude Altitude Speed Heading
2026-05-01 13:59 24.42398 54.65344 85 ft 0 kts 220°
2026-05-01 14:09 24.42401 54.65348 85 ft 2 kts 219°
2026-05-01 14:09 24.42414 54.65359 87 ft 2 kts 216°
2026-05-01 14:10 24.42428 54.65369 87 ft 2 kts 211°
2026-05-01 14:10 24.42443 54.65377 85 ft 2 kts 202°
2026-05-01 14:10 24.42458 54.65382 85 ft 2 kts 190°
2026-05-01 14:10 24.42475 54.65383 89 ft 2 kts 169°
2026-05-01 14:11 24.42490 54.65376 85 ft 2 kts 144°
2026-05-01 14:11 24.42498 54.65368 85 ft 0 kts 131°
2026-05-01 14:17 24.42493 54.65375 85 ft 9 kts 127°
2026-05-01 14:18 24.42430 54.65465 86 ft 17 kts 128°
2026-05-01 14:18 24.42377 54.65541 85 ft 9 kts 126°
2026-05-01 14:18 24.42345 54.65587 86 ft 9 kts 128°
2026-05-01 14:18 24.42312 54.65635 86 ft 15 kts 130°
2026-05-01 14:19 24.42221 54.65759 88 ft 11 kts 128°
2026-05-01 14:19 24.42184 54.65811 85 ft 8 kts 128°
2026-05-01 14:19 24.42152 54.65867 86 ft 9 kts 97°
2026-05-01 14:19 24.42180 54.65925 86 ft 8 kts 64°
2026-05-01 14:20 24.42167 54.65983 87 ft 9 kts 134°
2026-05-01 14:20 24.42079 54.66105 88 ft 11 kts 128°
2026-05-01 14:20 24.42030 54.66175 86 ft 12 kts 127°
2026-05-01 14:21 24.41978 54.66249 86 ft 12 kts 128°
2026-05-01 14:21 24.41954 54.66310 86 ft 6 kts 94°
2026-05-01 14:21 24.41960 54.66355 86 ft 7 kts 69°
2026-05-01 14:22 24.42024 54.66520 87 ft 16 kts 68°
2026-05-01 14:22 24.42052 54.66591 87 ft 5 kts 58°
2026-05-01 14:22 24.42059 54.66601 87 ft 0 kts 50°
2026-05-01 14:23 24.42065 54.66609 87 ft 6 kts 47°
2026-05-01 14:23 24.42091 54.66632 88 ft 8 kts 37°
2026-05-01 14:23 24.42163 54.66676 85 ft 8 kts 14°
2026-05-01 14:24 24.42190 54.66677 86 ft 6 kts 342°
2026-05-01 14:24 24.42201 54.66667 85 ft 2 kts 304°
2026-05-01 14:24 24.42210 54.66654 85 ft 0 kts 308°
2026-05-01 14:28 24.42268 54.66572 88 ft 36 kts 308°
2026-05-01 14:28 24.42529 54.66207 87 ft 84 kts 308°
2026-05-01 14:28 24.42943 54.65619 244 ft 105 kts 308°
2026-05-01 14:28 24.43390 54.64966 640 ft 107 kts 304°
2026-05-01 14:29 24.43856 54.64293 970 ft 113 kts 310°
2026-05-01 14:29 24.44353 54.63602 1365 ft 115 kts 311°
2026-05-01 14:30 24.45833 54.61531 2653 ft 116 kts 310°
2026-05-01 14:30 24.46329 54.60834 3088 ft 116 kts 310°
2026-05-01 14:30 24.46824 54.60135 3500 ft 117 kts 310°
2026-05-01 14:31 24.47812 54.58743 4368 ft 117 kts 310°
2026-05-01 14:31 24.48310 54.58041 4804 ft 116 kts 309°
2026-05-01 14:31 24.48819 54.57322 5089 ft 129 kts 309°
2026-05-01 14:31 24.49413 54.56508 5401 ft 139 kts 308°
2026-05-01 14:32 24.49998 54.55674 5876 ft 137 kts 307°
2026-05-01 14:32 24.50582 54.54844 6304 ft 138 kts 307°
2026-05-01 14:32 24.51172 54.54010 6704 ft 139 kts 306°
2026-05-01 14:32 24.51762 54.53177 7123 ft 138 kts 306°
2026-05-01 14:33 24.52359 54.52332 7547 ft 139 kts 306°
2026-05-01 14:33 24.52954 54.51493 7954 ft 139 kts 306°
2026-05-01 14:33 24.53546 54.50657 8355 ft 139 kts 305°
2026-05-01 14:33 24.54133 54.49827 8748 ft 140 kts 304°
2026-05-01 14:34 24.54729 54.48985 9163 ft 140 kts 304°
2026-05-01 14:34 24.55326 54.48140 9569 ft 141 kts 304°
2026-05-01 14:34 24.55927 54.47289 9937 ft 141 kts 303°
2026-05-01 14:34 24.56531 54.46436 10298 ft 142 kts 303°
2026-05-01 14:35 24.57139 54.45575 10660 ft 143 kts 303°
2026-05-01 14:35 24.57752 54.44708 11020 ft 144 kts 303°
2026-05-01 14:35 24.58368 54.43837 11385 ft 145 kts 303°
2026-05-01 14:35 24.58988 54.42960 11751 ft 146 kts 303°
2026-05-01 14:36 24.59611 54.42077 12102 ft 147 kts 303°
2026-05-01 14:36 24.60239 54.41189 12482 ft 148 kts 303°
2026-05-01 14:36 24.60871 54.40294 12843 ft 149 kts 303°
2026-05-01 14:36 24.61510 54.39393 13208 ft 150 kts 303°
2026-05-01 14:37 24.62153 54.38486 13576 ft 151 kts 303°
2026-05-01 14:37 24.62800 54.37574 13899 ft 152 kts 303°
2026-05-01 14:37 24.63451 54.36655 14220 ft 153 kts 302°
2026-05-01 14:37 24.64106 54.35732 14546 ft 154 kts 302°
2026-05-01 14:38 24.64765 54.34803 14868 ft 154 kts 302°
2026-05-01 14:38 24.65425 54.33871 15188 ft 155 kts 302°
2026-05-01 14:38 24.66091 54.32932 15513 ft 156 kts 301°
2026-05-01 14:38 24.66759 54.31989 15833 ft 157 kts 301°
2026-05-01 14:39 24.67430 54.31041 16146 ft 157 kts 301°
2026-05-01 14:39 24.68106 54.30089 16480 ft 158 kts 300°
2026-05-01 14:39 24.68783 54.29131 16804 ft 159 kts 300°
2026-05-01 14:39 24.69465 54.28169 17130 ft 160 kts 300°
2026-05-01 14:40 24.70149 54.27203 17447 ft 161 kts 300°
2026-05-01 14:40 24.70837 54.26231 17773 ft 161 kts 300°
2026-05-01 14:40 24.71528 54.25254 18087 ft 162 kts 299°
2026-05-01 14:40 24.72222 54.24273 18373 ft 163 kts 299°
2026-05-01 14:41 24.72917 54.23289 18654 ft 163 kts 299°
2026-05-01 14:41 24.73605 54.22299 18929 ft 163 kts 298°
2026-05-01 14:41 24.74284 54.21301 19209 ft 163 kts 297°
2026-05-01 14:41 24.74953 54.20294 19493 ft 163 kts 296°
2026-05-01 14:42 24.75611 54.19281 19769 ft 163 kts 296°
2026-05-01 14:42 24.76261 54.18259 20050 ft 163 kts 295°
2026-05-01 14:42 24.76901 54.17230 20329 ft 163 kts 295°
2026-05-01 14:42 24.77530 54.16194 20603 ft 163 kts 294°
2026-05-01 14:43 24.78150 54.15149 20878 ft 163 kts 293°
2026-05-01 14:43 24.78760 54.14097 21151 ft 163 kts 292°
2026-05-01 14:43 24.79360 54.13039 21427 ft 163 kts 292°
2026-05-01 14:43 24.79950 54.11974 21700 ft 163 kts 291°
2026-05-01 14:44 24.80721 54.11008 21966 ft 170 kts 303°
2026-05-01 14:44 24.82146 54.08995 22501 ft 166 kts 295°
2026-05-01 14:44 24.82810 54.07953 22768 ft 166 kts 294°
2026-05-01 14:45 24.83476 54.06908 23031 ft 167 kts 294°
2026-05-01 14:45 24.84814 54.04808 23525 ft 168 kts 294°
2026-05-01 14:45 24.85486 54.03752 23743 ft 168 kts 294°
2026-05-01 14:46 24.86158 54.02698 23960 ft 168 kts 294°
2026-05-01 14:46 24.87503 54.00585 24382 ft 169 kts 295°
2026-05-01 14:46 24.88176 53.99528 24593 ft 169 kts 294°
2026-05-01 14:47 24.88848 53.98471 24805 ft 169 kts 294°
2026-05-01 14:47 24.89523 53.97411 25007 ft 169 kts 295°
2026-05-01 14:47 24.90198 53.96350 25212 ft 169 kts 295°
2026-05-01 14:48 24.91550 53.94223 25611 ft 170 kts 295°
2026-05-01 14:48 24.92228 53.93156 25812 ft 170 kts 294°
2026-05-01 14:48 24.93662 53.90891 25851 ft 191 kts 296°
2026-05-01 14:49 24.95260 53.88380 25852 ft 209 kts 296°
2026-05-01 14:49 24.96984 53.85664 25851 ft 223 kts 297°
2026-05-01 14:50 24.98182 53.83778 25855 ft 230 kts 297°
2026-05-01 14:50 25.00700 53.79808 25855 ft 241 kts 297°
2026-05-01 14:51 25.01665 53.78285 25853 ft 244 kts 298°
2026-05-01 14:51 25.03612 53.75213 25855 ft 248 kts 298°
2026-05-01 14:52 25.05600 53.72073 25858 ft 251 kts 298°
2026-05-01 14:52 25.06600 53.70493 25857 ft 252 kts 298°
2026-05-01 14:52 25.08614 53.67309 25858 ft 254 kts 298°
2026-05-01 14:53 25.09636 53.65691 25858 ft 254 kts 298°
2026-05-01 14:53 25.10648 53.64089 25858 ft 255 kts 298°
2026-05-01 14:53 25.11662 53.62485 25859 ft 255 kts 298°
2026-05-01 14:53 25.12666 53.60894 25857 ft 256 kts 298°
2026-05-01 14:54 25.13696 53.59262 25859 ft 256 kts 298°
2026-05-01 14:54 25.14371 53.58192 25855 ft 256 kts 298°
2026-05-01 14:54 25.15720 53.56054 25857 ft 257 kts 298°
2026-05-01 14:54 25.16755 53.54413 25859 ft 257 kts 298°
2026-05-01 14:55 25.17429 53.53343 25859 ft 257 kts 298°
2026-05-01 14:55 25.18781 53.51198 25860 ft 257 kts 298°
2026-05-01 14:55 25.19472 53.50101 25861 ft 257 kts 298°
2026-05-01 14:55 25.20495 53.48476 25860 ft 257 kts 298°
2026-05-01 14:56 25.21516 53.46854 25860 ft 258 kts 298°
2026-05-01 14:56 25.22538 53.45229 25858 ft 258 kts 298°
2026-05-01 14:56 25.23559 53.43608 25859 ft 258 kts 298°
2026-05-01 14:56 25.24915 53.41451 25861 ft 258 kts 298°
2026-05-01 14:57 25.25606 53.40351 25860 ft 258 kts 298°
2026-05-01 14:57 25.27650 53.37099 25862 ft 258 kts 298°
2026-05-01 14:57 25.28674 53.35467 25861 ft 258 kts 298°
2026-05-01 14:58 25.29697 53.33838 25862 ft 258 kts 298°
2026-05-01 14:58 25.30707 53.32230 25863 ft 258 kts 298°
2026-05-01 14:58 25.31744 53.30577 25862 ft 258 kts 298°
2026-05-01 14:58 25.32752 53.28969 25861 ft 258 kts 298°
2026-05-01 14:59 25.33776 53.27336 25865 ft 258 kts 298°
2026-05-01 14:59 25.34800 53.25702 25861 ft 259 kts 298°
2026-05-01 14:59 25.35824 53.24068 25863 ft 259 kts 298°
2026-05-01 14:59 25.36848 53.22433 25864 ft 259 kts 298°
2026-05-01 15:00 25.38897 53.19159 25861 ft 259 kts 298°
2026-05-01 15:00 25.39921 53.17522 25862 ft 259 kts 298°
2026-05-01 15:00 25.40948 53.15881 25859 ft 259 kts 298°
2026-05-01 15:01 25.41985 53.14221 25860 ft 259 kts 298°
2026-05-01 15:01 25.43009 53.12583 25861 ft 259 kts 298°
2026-05-01 15:01 25.44020 53.10965 25861 ft 259 kts 298°
2026-05-01 15:01 25.45045 53.09323 25864 ft 259 kts 298°
2026-05-01 15:02 25.46071 53.07680 25865 ft 260 kts 298°
2026-05-01 15:02 25.46764 53.06569 25865 ft 260 kts 298°
2026-05-01 15:02 25.48133 53.04374 25862 ft 260 kts 298°
2026-05-01 15:02 25.49162 53.02725 25863 ft 260 kts 298°
2026-05-01 15:03 25.50186 53.01082 25864 ft 260 kts 298°
2026-05-01 15:03 25.51211 52.99437 25866 ft 260 kts 298°
2026-05-01 15:03 25.52236 52.97792 25867 ft 260 kts 298°
2026-05-01 15:03 25.53261 52.96145 25864 ft 260 kts 298°
2026-05-01 15:04 25.54287 52.94497 25866 ft 260 kts 298°
2026-05-01 15:04 25.55312 52.92851 25865 ft 260 kts 298°
2026-05-01 15:04 25.56337 52.91202 25862 ft 260 kts 298°
2026-05-01 15:04 25.57227 52.89479 25864 ft 257 kts 293°
2026-05-01 15:05 25.58065 52.87729 25866 ft 257 kts 293°
2026-05-01 15:05 25.58917 52.85985 25865 ft 257 kts 294°
2026-05-01 15:05 25.59772 52.84242 25863 ft 258 kts 293°
2026-05-01 15:05 25.60624 52.82498 25867 ft 257 kts 293°
2026-05-01 15:06 25.61474 52.80755 25866 ft 257 kts 293°
2026-05-01 15:06 25.62324 52.79009 25865 ft 257 kts 293°
2026-05-01 15:06 25.63175 52.77264 25867 ft 257 kts 293°
2026-05-01 15:06 25.64026 52.75519 25866 ft 257 kts 294°
2026-05-01 15:07 25.64876 52.73774 25864 ft 257 kts 294°
2026-05-01 15:07 25.65725 52.72029 25863 ft 257 kts 294°
2026-05-01 15:07 25.66575 52.70284 25867 ft 257 kts 294°
2026-05-01 15:07 25.67424 52.68538 25866 ft 257 kts 294°
2026-05-01 15:08 25.68273 52.66791 25868 ft 257 kts 294°
2026-05-01 15:08 25.69122 52.65045 25869 ft 257 kts 294°
2026-05-01 15:08 25.69969 52.63302 25866 ft 257 kts 294°
2026-05-01 15:08 25.70819 52.61552 25866 ft 257 kts 294°
2026-05-01 15:09 25.71667 52.59807 25868 ft 257 kts 294°
2026-05-01 15:09 25.72516 52.58058 25869 ft 257 kts 294°
2026-05-01 15:09 25.73363 52.56312 25871 ft 257 kts 294°
2026-05-01 15:09 25.74210 52.54566 25869 ft 257 kts 294°
2026-05-01 15:10 25.75057 52.52817 25866 ft 257 kts 294°
2026-05-01 15:10 25.76741 52.49317 25868 ft 257 kts 292°
2026-05-01 15:10 25.77551 52.47551 25868 ft 257 kts 292°
2026-05-01 15:11 25.78365 52.45787 25869 ft 257 kts 292°
2026-05-01 15:11 25.80008 52.42263 25869 ft 257 kts 293°
2026-05-01 15:11 25.80828 52.40500 25871 ft 257 kts 292°
2026-05-01 15:12 25.81647 52.38735 25872 ft 257 kts 292°
2026-05-01 15:12 25.83286 52.35206 25874 ft 257 kts 293°
2026-05-01 15:12 25.84106 52.33440 25874 ft 257 kts 293°
2026-05-01 15:13 25.86561 52.28145 25873 ft 257 kts 293°
2026-05-01 15:14 25.88805 52.24991 25872 ft 264 kts 307°
2026-05-01 15:14 25.90042 52.23490 25873 ft 263 kts 306°
2026-05-01 15:14 25.92518 52.20487 25875 ft 264 kts 307°
2026-05-01 15:15 25.95002 52.17491 25873 ft 264 kts 306°
2026-05-01 15:15 25.97482 52.14494 25874 ft 264 kts 306°
2026-05-01 15:16 25.99965 52.11492 25875 ft 264 kts 306°
2026-05-01 15:16 26.02444 52.08491 25873 ft 263 kts 306°
2026-05-01 15:17 26.04921 52.05492 25875 ft 263 kts 306°
2026-05-01 15:18 26.08635 52.00995 25876 ft 263 kts 306°
2026-05-01 15:18 26.09872 51.99497 25877 ft 263 kts 306°
2026-05-01 15:19 26.13578 51.95004 25876 ft 263 kts 306°
2026-05-01 15:19 26.16048 51.92007 25879 ft 263 kts 306°
2026-05-01 15:19 26.17282 51.90509 25878 ft 263 kts 306°
2026-05-01 15:20 26.19734 51.87530 25879 ft 263 kts 306°
2026-05-01 15:20 26.20969 51.86030 25875 ft 263 kts 306°
2026-05-01 15:20 26.22202 51.84530 25875 ft 263 kts 306°
2026-05-01 15:21 26.23437 51.83029 25877 ft 263 kts 306°
2026-05-01 15:21 26.24682 51.81511 25876 ft 262 kts 305°
2026-05-01 15:21 26.25658 51.79839 25877 ft 255 kts 291°
2026-05-01 15:21 26.26426 51.78056 25877 ft 256 kts 292°
2026-05-01 15:22 26.28026 51.74515 25882 ft 255 kts 292°
2026-05-01 15:22 26.28803 51.72766 25878 ft 255 kts 292°
2026-05-01 15:22 26.29601 51.70970 25878 ft 255 kts 292°
2026-05-01 15:23 26.30389 51.69200 25877 ft 255 kts 292°
2026-05-01 15:23 26.31178 51.67428 25877 ft 255 kts 292°
2026-05-01 15:23 26.31968 51.65654 25879 ft 255 kts 292°
2026-05-01 15:23 26.32755 51.63888 25876 ft 255 kts 292°
2026-05-01 15:24 26.33546 51.62117 25875 ft 255 kts 292°
2026-05-01 15:24 26.34335 51.60346 25877 ft 255 kts 292°
2026-05-01 15:24 26.35124 51.58575 25873 ft 255 kts 292°
2026-05-01 15:24 26.35912 51.56806 25874 ft 255 kts 292°
2026-05-01 15:25 26.36700 51.55035 25872 ft 255 kts 292°
2026-05-01 15:25 26.37489 51.53263 25875 ft 255 kts 292°
2026-05-01 15:25 26.38192 51.51440 25641 ft 260 kts 286°
2026-05-01 15:25 26.38791 51.49530 25247 ft 261 kts 286°
2026-05-01 15:26 26.39389 51.47622 24855 ft 260 kts 287°
2026-05-01 15:26 26.39994 51.45721 24468 ft 260 kts 287°
2026-05-01 15:26 26.40602 51.43823 24084 ft 259 kts 287°
2026-05-01 15:26 26.41206 51.41933 23710 ft 259 kts 287°
2026-05-01 15:27 26.41810 51.40038 23315 ft 258 kts 287°
2026-05-01 15:27 26.42412 51.38158 22871 ft 257 kts 287°
2026-05-01 15:27 26.43010 51.36282 22432 ft 256 kts 287°
2026-05-01 15:28 26.44198 51.32571 21575 ft 252 kts 287°
2026-05-01 15:28 26.44784 51.30739 21155 ft 250 kts 286°
2026-05-01 15:28 26.45364 51.28918 20746 ft 248 kts 285°
2026-05-01 15:29 26.45457 51.25213 19927 ft 240 kts 255°
2026-05-01 15:29 26.44844 51.23486 19529 ft 238 kts 249°
2026-05-01 15:29 26.43594 51.20104 18754 ft 234 kts 249°
2026-05-01 15:30 26.42569 51.17341 18114 ft 230 kts 248°
2026-05-01 15:31 26.39963 51.10327 16240 ft 222 kts 249°
2026-05-01 15:31 26.38790 51.07171 15408 ft 219 kts 249°
2026-05-01 15:32 26.37632 51.04060 14610 ft 216 kts 249°
2026-05-01 15:32 26.36488 51.00987 13826 ft 214 kts 249°
2026-05-01 15:33 26.34792 50.96436 12550 ft 210 kts 249°
2026-05-01 15:34 26.34620 50.91787 11308 ft 210 kts 294°